Rochester, NY

8:13 AM EST on December 10, 2019 (GMT -0500)
Greater Rochester International

Weather History for KROC - November, 2019

Change the Weather History Date:

Thursday, November 14, 2019

  Actual Average Record
Temperature  
Mean Temperature 30 °F 41 °F  
Max Temperature 36 °F 49 °F 72 °F (1994)
Min Temperature 23 °F 34 °F 10 °F (1905)
Degree Days  
Heating Degree Days 36 24  
Month to date heating degree days 432 303  
Since 1 July heating degree days 855 936  
Cooling Degree Days 0 0  
Month to date cooling degree days 0 0  
Year to date cooling degree days 621 539  
Moisture  
Dew Point 22 °F    
Average Humidity 72    
Maximum Humidity 85    
Minimum Humidity 56    
Precipitation  
Precipitation 0.02 in 0.10 in 1.13 in (1972)
Month to date precipitation 1.51 1.33  
Year to date precipitation 30.21 30.03  
Snow  
Snow 0.50 in 0.20 in 10.60 in (1997)
Month to date snowfall 17.8 2.1  
Since 1 July snowfall 17.8 2.2  
Since 1 September snowfall 17.8 2.2  
Snow Depth 10.0 in    
Sea Level Pressure  
Sea Level Pressure 30.21 in    
Wind  
Wind Speed 7 mph ()    
Max Wind Speed 17 mph    
Max Gust Speed 22 mph    
Visibility 7.6 miles    
Events Snow    
T = Trace of Precipitation, MM = Missing Value Source: Averaged Metar Reports

Daily Weather History Graph

Daily Weather History Graph

Search for Another Location

Airport or City:

Astronomy

Nov. 14, 2019 Rise Set
Actual Time 7:01 AM EST 4:47 PM EST
Civil Twilight 6:31 AM EST 5:18 PM EST
Nautical Twilight 5:56 AM EST 5:52 PM EST
Astronomical Twilight 5:23 AM EST 6:26 PM EST
Moon 6:30 PM EST (11/14) 8:57 AM EST (11/14)
Length of Visible Light 10h 47m
Length of Day
9h 46m
Waning Gibbous, 95% of the Moon is Illuminated
Nov 14
Waning Gibbous
Nov 19
Last Quarter
Nov 26
New
Dec 4
First Quarter
Dec 12
Full

Hourly Weather History & Observations

Time (EST) Temp. Windchill Dew Point Humidity Pressure Visibility Wind Dir Wind Speed Gust Speed Precip Events Conditions
12:54 AM 23.0 °F 13.9 °F 12.9 °F 65% 30.27 in 10.0 mi SE 8.1 mph - N/A   Mostly Cloudy
1:54 AM 23.0 °F 13.9 °F 14.0 °F 68% 30.25 in 10.0 mi SE 8.1 mph - N/A   Overcast
2:54 AM 24.1 °F 18.2 °F 14.0 °F 65% 30.23 in 10.0 mi SSE 4.6 mph - N/A   Overcast
4:54 AM 27.0 °F 21.6 °F 16.0 °F 63% 30.22 in 10.0 mi SSW 4.6 mph - N/A   Overcast
5:29 AM 27.0 °F 17.3 °F 19.9 °F 75% 30.19 in 2.5 mi SW 10.4 mph - 0.00 in Snow Light Snow
5:44 AM 27.0 °F 21.6 °F 21.0 °F 78% 30.18 in 7.0 mi SW 4.6 mph - 0.00 in Snow Light Snow
5:54 AM 27.0 °F 23.0 °F 19.9 °F 75% 30.22 in 10.0 mi SW 3.5 mph - 0.00 in Snow Light Snow
6:02 AM 27.0 °F 23.0 °F 19.9 °F 75% 30.18 in 9.0 mi South 3.5 mph - 0.00 in Snow Light Snow
6:14 AM 28.0 °F 18.1 °F 19.9 °F 72% 30.19 in 3.0 mi SW 11.5 mph - 0.00 in Snow Light Snow
6:18 AM 27.0 °F 16.7 °F 19.9 °F 75% 30.19 in 1.8 mi SW 11.5 mph - 0.00 in Snow Light Snow
6:36 AM 27.0 °F 18.0 °F 23.0 °F 85% 30.18 in 3.0 mi WSW 9.2 mph - 0.00 in Snow Light Snow
6:54 AM 28.0 °F 20.8 °F 21.9 °F 78% 30.22 in 8.0 mi SW 6.9 mph - 0.00 in Snow Light Snow
7:54 AM 28.9 °F 22.8 °F 21.0 °F 72% 30.23 in 9.0 mi SSW 5.8 mph - 0.00 in Snow Light Snow
8:20 AM 28.9 °F 20.4 °F 19.9 °F 69% 30.21 in 2.5 mi SW 9.2 mph - 0.00 in Snow Light Snow
8:28 AM 28.0 °F 20.8 °F 21.0 °F 75% 30.21 in 1.5 mi SW 6.9 mph - 0.00 in Snow Light Snow
8:54 AM 28.0 °F 20.8 °F 23.0 °F 81% 30.25 in 1.2 mi SW 6.9 mph - 0.01 in Snow Light Snow
9:13 AM 27.0 °F 18.7 °F 23.0 °F 85% 30.20 in 2.0 mi SSW 8.1 mph - 0.01 in Snow Light Snow
9:21 AM 27.0 °F 18.7 °F 23.0 °F 85% 30.20 in 7.0 mi South 8.1 mph - 0.01 in Snow Light Snow
9:54 AM 28.9 °F 21.1 °F 21.9 °F 75% 30.24 in 10.0 mi South 8.1 mph - 0.01 in   Overcast
10:54 AM 33.1 °F 24.4 °F 21.9 °F 64% 30.22 in 10.0 mi SSW 11.5 mph 19.6 mph N/A   Overcast
11:54 AM 34.0 °F 25.0 °F 23.0 °F 64% 30.21 in 10.0 mi SSW 12.7 mph - N/A   Mostly Cloudy
12:54 PM 35.1 °F 26.9 °F 21.0 °F 57% 30.20 in 10.0 mi SSW 11.5 mph - N/A   Overcast
1:54 PM 36.0 °F 29.0 °F 23.0 °F 59% 30.18 in 10.0 mi WSW 9.2 mph - N/A   Overcast
2:54 PM 36.0 °F 30.3 °F 24.1 °F 62% 30.18 in 10.0 mi West 6.9 mph - N/A   Overcast
3:54 PM 35.1 °F 27.9 °F 25.0 °F 67% 30.20 in 9.0 mi West 9.2 mph - 0.00 in Snow Light Snow
4:54 PM 35.1 °F 29.3 °F 25.0 °F 67% 30.21 in 9.0 mi WSW 6.9 mph - 0.00 in Snow Light Snow
5:54 PM 35.1 °F 30.1 °F 24.1 °F 64% 30.22 in 10.0 mi SW 5.8 mph - 0.00 in   Overcast
6:54 PM 34.0 °F 28.0 °F 25.0 °F 70% 30.23 in 10.0 mi NW 6.9 mph - N/A   Overcast
7:54 PM 33.1 °F 28.7 °F 26.1 °F 75% 30.22 in 10.0 mi West 4.6 mph - N/A   Overcast
8:54 PM 33.1 °F 28.7 °F 27.0 °F 78% 30.22 in 10.0 mi West 4.6 mph - N/A   Overcast
9:54 PM 32.0 °F 27.5 °F 27.0 °F 82% 30.22 in 9.0 mi West 4.6 mph - N/A   Overcast
10:54 PM 32.0 °F - 27.0 °F 82% 30.19 in 8.0 mi Calm Calm - N/A   Overcast
11:54 PM 32.0 °F 28.7 °F 27.0 °F 82% 30.19 in 8.0 mi WNW 3.5 mph - N/A   Overcast